HST 1 20580U 90037B 26036.31204605 .00009602 00000+0 32359-3 0 9993 2 20580 28.4665 260.7880 0001932 109.1408 250.9397 15.28961568768352 POLAR 1 23802U 96013A 26033.24819365 .00000236 00000+0 00000+0 0 9995 2 23802 79.6983 228.5855 6333714 213.6433 82.0506 1.29845968143105 SWAS 1 25560U 98071A 26035.84862676 .00004504 00000+0 29438-3 0 9997 2 25560 69.8948 208.5351 0002798 111.9122 248.2340 15.08534503477309 CXO 1 25867U 99040B 26034.50897227 .00000739 00000+0 00000+0 0 9992 2 25867 54.0018 120.6888 8050674 310.8579 0.1951 0.37804724 16822 XMM-NEWTON 1 25989U 99066A 26031.72532401 .00000094 00000+0 00000+0 0 9990 2 25989 65.1743 284.7836 4724780 67.3227 359.9893 0.50131279 22321 TERRA 1 25994U 99068A 26036.25489681 .00000659 00000+0 14358-3 0 9994 2 25994 97.9661 90.9173 0000984 297.8745 137.2796 14.60978909390348 CLUSTER II-FM7 (SAMBA) 1 26410U 00041A 26023.07807862 .00004677 00000+0 00000+0 0 9991 2 26410 148.3592 29.7174 8835954 245.6118 359.2301 0.44786329 19664 CLUSTER II-FM8 (TANGO) 1 26464U 00045B 26019.78457485 .00005071 00000+0 00000+0 0 9998 2 26464 148.5838 29.9991 8833034 245.7591 359.3805 0.44425532 19644 ODIN 1 26702U 01007A 26036.01543313 .00048573 00000+0 70735-3 0 9993 2 26702 97.4134 70.7865 0001365 283.8103 76.3000 15.55589136368753 TIMED 1 26998U 01055B 26035.72157724 .00002498 00000+0 23243-3 0 9995 2 26998 74.0695 141.6692 0002058 313.5112 46.5901 14.94910027311026 CORIOLIS 1 27640U 03001A 26036.28482848 .00000198 00000+0 11392-3 0 9990 2 27640 98.7154 45.1714 0013169 230.1797 129.8221 14.19899384195507 SORCE 1 27651U 03004A 26036.20643340 .00005186 00000+0 39017-3 0 9999 2 27651 39.9910 294.2164 0016919 188.5613 171.4895 15.02820016252032 MOST 1 27843U 03031D 26036.00481889 .00000115 00000+0 72876-4 0 9996 2 27843 98.7077 45.5593 0008767 274.8445 85.1731 14.21289829171939 SCISAT 1 1 27858U 03036A 26036.06241535 .00000967 00000+0 12877-3 0 9994 2 27858 73.9288 73.8261 0007030 180.4610 179.6561 14.81247099211886 SWIFT 1 28485U 04047A 26035.88559655 .00069995 00000+0 94392-3 0 9996 2 28485 20.5535 116.2637 0002204 271.1373 88.8818 15.56080093166143 HINODE (SOLAR-B) 1 29479U 06041A 26036.06875111 .00000951 00000+0 17250-3 0 9990 2 29479 98.0635 54.1300 0017244 351.7514 8.3405 14.68416896 35484 SHIJIAN-6 02A (SJ-6 02A) 1 29505U 06046A 26036.29120354 .00009802 00000+0 52518-3 0 9992 2 29505 97.6550 76.4005 0002093 206.8445 153.2679 15.15210771 52280 SHIJIAN-6 02B (SJ-6 02B) 1 29506U 06046B 26036.29748326 .00002907 00000+0 23314-3 0 9999 2 29506 97.6989 66.3133 0013413 144.6413 215.5703 15.00829810 50955 FGRST (GLAST) 1 33053U 08029A 26036.32081618 .00005673 00000+0 21995-3 0 9998 2 33053 25.5833 39.5385 0008234 208.3323 151.6768 15.23065922975700 SDO 1 36395U 10005A 26033.15753127 -.00000091 00000+0 00000+0 0 9996 2 36395 34.3665 88.3951 0000722 125.3144 233.1380 1.00276361 58706 CRYOSAT 2 1 36508U 10013A 26036.30645375 .00000212 00000+0 51889-4 0 9996 2 36508 92.0223 245.3676 0002522 82.9575 277.1919 14.51903410838948 X-SAT 1 37389U 11015C 26036.23727628 .00000037 00000+0 33166-4 0 9994 2 37389 98.3377 19.6468 0014495 15.1850 344.9763 14.25157094768887 GCOM-W1 (SHIZUKU) 1 38337U 12025A 26035.84416431 .00000856 00000+0 19988-3 0 9997 2 38337 98.2272 338.3645 0001394 80.5384 342.2851 14.57131922729764 NUSTAR 1 38358U 12031A 26036.33335648 .00024277 00000+0 15027-2 0 9994 2 38358 6.0277 302.1134 0009385 301.2733 176.9568 15.07240989 1300 NEOSSAT 1 39089U 13009D 26036.01180699 .00000268 00000+0 10742-3 0 9995 2 39089 98.4106 219.2071 0009890 281.7210 78.2867 14.35766866677772 BRITE-AUSTRIA 1 39091U 13009F 26035.72759878 .00000299 00000+0 11642-3 0 9990 2 39091 98.3920 218.4651 0009072 276.4706 83.5448 14.36475431678036 IRIS 1 39197U 13033A 26036.29721784 .00002191 00000+0 25861-3 0 9993 2 39197 97.9397 235.9339 0025294 32.8880 327.3902 14.85535316680797 HISAKI (SPRINT-A) 1 39253U 13049A 26036.07586407 .00000101 00000+0 51501-4 0 9990 2 39253 29.7180 171.6643 0136848 25.6917 335.0379 13.55527533613480 CASSIOPE 1 39265U 13055A 26036.17571023 .00055698 -24993-6 69591-3 0 9992 2 39265 80.9161 225.9491 0325615 144.5562 217.7794 15.15956789647609 STSAT-3 1 39422U 13066G 26036.23462137 .00004730 00000+0 36612-3 0 9995 2 39422 97.6084 8.4943 0014556 115.8277 244.4451 15.01851469664398 SWARM B 1 39451U 13067A 26036.24463323 .00006323 00000+0 23372-3 0 9996 2 39451 87.7443 22.3220 0002968 100.1991 259.9593 15.27527915663094 SWARM A 1 39452U 13067B 26036.27846515 .00016256 00000+0 31053-3 0 9999 2 39452 87.3334 105.1551 0002857 93.4029 266.7557 15.47982026685821 SWARM C 1 39453U 13067C 26036.27836502 .00016098 00000+0 30750-3 0 9992 2 39453 87.3330 103.7381 0002882 93.0962 267.0627 15.47983558685781 BRITE-CA1 (TORONTO) 1 40020U 14033L 26036.07786864 .00001248 00000+0 19590-3 0 9991 2 40020 97.9524 167.6313 0078557 340.7751 19.0496 14.72374704622772 OCO 2 1 40059U 14035A 26036.24144889 .00000825 00000+0 19301-3 0 9999 2 40059 98.2277 339.5011 0001520 73.4903 286.6462 14.57136837616834 BRITE-PL2 (HEWELIUSZ) 1 40119U 14049B 26036.25876295 .00004322 00000+0 41009-3 0 9991 2 40119 97.8983 147.4086 0014098 181.8279 178.2891 14.94002673621741 MMS 1 1 40482U 15011A 26036.33335648 -.00001856 00000+0 00000+0 0 9997 2 40482 70.3494 350.6191 8449556 164.6293 169.7785 0.28341021 1380 MMS 2 1 40483U 15011B 26036.33335648 -.00001857 00000+0 00000+0 0 9999 2 40483 70.3459 350.6101 8451132 164.6455 169.7436 0.28341010 1387 MMS 3 1 40484U 15011C 26036.33335648 -.00001856 00000+0 00000+0 0 9999 2 40484 70.3530 350.6260 8451160 164.6408 169.7434 0.28341219 1382 MMS 4 1 40485U 15011D 26036.33335648 -.00001857 00000+0 00000+0 0 9991 2 40485 70.3538 350.6176 8452438 164.6272 169.7778 0.28341182 1385 ASTROSAT 1 40930U 15052A 26036.29067894 .00002637 00000+0 24070-3 0 9994 2 40930 5.9979 24.5576 0008477 308.7958 51.1413 14.82199650560227 DAMPE 1 41173U 15078A 26036.23967053 .00002371 00000+0 83221-4 0 9991 2 41173 97.4564 41.0882 0011953 175.9329 184.2011 15.30378192564361 PISAT 1 41784U 16059B 26036.26035625 .00001762 00000+0 30907-3 0 9998 2 41784 97.8176 42.4146 0027682 267.0344 92.7694 14.68686182500378 HXMT (HUIYAN) 1 42758U 17034A 26036.12481113 .00008599 00000+0 43318-3 0 9991 2 42758 43.0131 197.6590 0031269 26.4342 333.8093 15.17028309477596 FLYING LAPTOP 1 42831U 17042G 26036.29958142 .00003787 00000+0 30607-3 0 9992 2 42831 97.4219 197.4339 0015442 207.6309 152.4096 15.00286886466671 ZHANGHENG 1-01 (CSES-1) 1 43194U 18015C 26036.28298866 .00014845 00000+0 66753-3 0 9993 2 43194 97.6702 199.4239 0016169 15.4424 344.7301 15.21106467444595 SALSAT 1 46495U 20068K 26036.25353565 .00014295 00000+0 53298-3 0 9995 2 46495 97.8830 31.5262 0011802 52.0614 308.1689 15.27489317295204 IXPE 1 49954U 21121A 26036.25003472 .00016667 00000+0 97143-3 0 9990 2 49954 0.2299 234.4733 0007642 246.5054 349.0337 15.08756048 5879